Miscellaneous Local Product
Issued by NWS Hastings, NE

Home | Current Version | Previous Version | Graphics & Text | Print | Product List | Glossary On
Versions: 1 2 3 4 5 6 7 8 9 10 11 12 13 14 15 16 17 18 19 20 21 22 23 24 25 26 27 28 29 30 31 32 33 34 35 36 37 38 39 40 41 42 43 44 45 46 47 48 49 50
000
AXUS43 KGID 200202
MISGRI

GID CWA HOURLY WEATHER ROUNDUP
NATIONAL WEATHER SERVICE HASTINGS NE
900 PM CDT THU OCT 19 2017

NOTE: "FAIR" INDICATES FEW OR NO CLOUDS BELOW 12,000 FEET WITH NO
SIGNIFICANT WEATHER AND/OR OBSTRUCTIONS TO VISIBILITY.

...SOUTH CENTRAL NEBRASKA...

CITY           SKY/WX    TMP DP  RH WIND       PRES   REMARKS
GRAND ISLAND   CLEAR     65  50  58 S10       29.94S
HASTINGS       CLEAR     66  46  48 S10       29.95S
KEARNEY        CLEAR     64  46  52 S13       29.93S
ORD            CLEAR     67  49  52 SE14G23   29.89S
YORK           CLEAR     66  48  52 S8        29.95S
AURORA         CLEAR     62  48  60 S6        29.95S
LEXINGTON      CLOUDY    60  46  58 SE9       29.91F
HOLDREGE       CLEAR     65  44  47 S13G18    29.93S
HEBRON         CLEAR     67  47  48 S13       29.97S

...NEBRASKA PANHANDLE...

CITY           SKY/WX    TMP DP  RH WIND       PRES   REMARKS
CHADRON        CLOUDY    63  27  25 VRB3      29.76F
ALLIANCE       CLOUDY    54  38  54 SE12      29.84S
SCOTTSBLUFF    CLEAR     55  32  41 E7        29.83S
SIDNEY         CLOUDY    61  39  44 S12       29.89S

...WESTERN AND NORTH CENTRAL NEBRASKA...

CITY           SKY/WX    TMP DP  RH WIND       PRES   REMARKS
VALENTINE      CLEAR     70  44  39 S14       29.82F
AINSWORTH      CLEAR     64  48  56 S12       29.85F
ONEILL         CLEAR     62  49  62 S8        29.88S
BROKEN BOW     CLEAR     65  48  54 SE9       29.90S
IMPERIAL       CLOUDY    65  44  46 SE12      29.89S
NORTH PLATTE   CLOUDY    63  47  55 E8        29.88F
MCCOOK         CLOUDY    68  42  38 S14       29.90S

...EASTERN NEBRASKA...

CITY           SKY/WX    TMP DP  RH WIND       PRES   REMARKS
NORFOLK        CLEAR     66  53  63 SE13      29.91R
SO SIOUX CITY  CLEAR     57  52  83 SE7       29.93F
TEKAMAH        CLEAR     56  50  80 S5        29.94F
COLUMBUS       CLEAR     68  51  54 S12       29.94S
ALBION         CLEAR     62  50  64 SE6       29.92S
OMAHA EPPLEY   PTCLDY    68  51  54 S10       29.97S
OFFUTT AFB     CLEAR     65  51  60 E6        29.97S
MILLARD        CLEAR     69  54  58 SE5       29.97S
LINCOLN        CLEAR     61  50  67 S10       29.97S
NEBRASKA CITY  CLEAR     63  52  68 S9        30.00S
BEATRICE       CLOUDY    66  50  55 SE7       29.99R
FALLS CITY     CLOUDY    62  51  67 SE6       30.01S

...NORTHERN KANSAS...

CITY           SKY/WX    TMP DP  RH WIND       PRES   REMARKS
GOODLAND       CLOUDY    61  46  57 S12       29.92S
HILL CITY      CLOUDY    67  46  47 S15G23    29.95S
NORTON         CLEAR     64  34  32 SE12G17   29.93S
PHILLIPSBURG   CLEAR     68  43  40 SE10G16   29.94S
SMITH CENTER   PTCLDY    63  43  48 SE10      29.96S
HAYS           PTCLDY    62  47  57 SE10      29.97S
RUSSELL        CLOUDY    68  48  48 S17       29.97S
CONCORDIA      CLEAR     68  47  46 S16       29.98S
SALINA         PTCLDY    64  50  60 S12       30.00S
TOPEKA         CLEAR     66  54  65 SE7       30.04S



USA.gov is the U.S. government's official web portal to all federal, state and local government web resources and services.